Weather in Toturbiykala

Russia / Republic of Dagestan     43°12′28″N   46°41′22″E
temp.,
°C
wind,
m/s
gust,
m/s
humid.,
%
clouds,
%
prec.,
mm/h
press.,
hPa
HPBL,
m
17 april, sat
sat1700:00+12e22610 0.0 101828
03:00+11e11675 0.0 101815
06:00+12ese22678 0.0 101727
09:00+20ene3445100 0.0 1016551
12:00+23nnw333877 0.0 10171245
15:00+23wnw6740100 0.0 10171754
18:00+19nnw245895 0.0 1018100
21:00+16w81261100 0.0 1020574
18 april, sun
sun1800:00+14w61072100 0.0 1020414
03:00+12w5979100 0.0 1020299
06:00+12w3484100 0.0 1020252
09:00+15nnw2264100 0.0 1019652
12:00+19nne3247100 0.0 10181146
15:00+20nne3246100 0.4 10171414
18:00+16e5760100 0.1 1018334
21:00+13ese3570100 0.1 1019193
19 april, mon
mon1900:00+12e3581100 0.1 1019140
03:00+11e2278100 0.1 101937
06:00+12ese3574100 0.0 1018114
09:00+17e4555100 0.0 1018486
12:00+21e774594 0.0 1016842
15:00+21e884485 0.0 1014646
18:00+16e7105798 0.0 1015279
21:00+14e59618 0.0 1015195
20 april, tue
tue2000:00+13e3667100 0.0 1014103
03:00+13e5969100 0.0 1012173
06:00+14ese6116759 0.0 1010223
09:00+22e81148100 0.0 1007440
12:00+23ese91146100 0.0 1005454
15:00+23e101449100 0.0 1003434
18:00+18e71266100 0.1 1004222
21:00+16w4773100 0.4 1010312
21 april, wed
wed2100:00+14ese4593100 4.1 1011153
03:00+16nw3690100 4.3 1015259
06:00+14w61183100 0.3 1018692
09:00+15w61078100 0.3 1019856
12:00+16wnw566798 0.0 10191099
15:00+16wnw5664100 0.1 10181174
18:00+14wsw4777100 2.3 1020308
21:00+14w5884100 4.1 1020431